Time,TemperatureF,DewpointF,PressureIn,WindDirection,WindDirectionDegrees,WindSpeedMPH,WindSpeedGustMPH,Humidity,HourlyPrecipIn,Conditions,Clouds,dailyrainin,SoftwareType,DateUTC
2013-04-03 00:04:00,22.8,16.0,30.36,WNW,296,0.0,-999.0,76,-99.99,,,0.00,weatherlink.com 1.10,2013-04-03 05:04:00,
2013-04-03 00:19:00,22.3,16.0,30.36,WNW,296,0.0,-999.0,77,-99.99,,,0.00,weatherlink.com 1.10,2013-04-03 05:19:00,
2013-04-03 00:34:00,22.1,16.0,30.36,WNW,296,0.0,-999.0,78,-99.99,,,0.00,weatherlink.com 1.10,2013-04-03 05:34:00,
2013-04-03 00:49:00,22.0,16.0,30.36,WNW,296,0.0,-999.0,78,-99.99,,,0.00,weatherlink.com 1.10,2013-04-03 05:49:00,
2013-04-03 01:04:00,21.6,16.0,30.36,WNW,296,0.0,-999.0,79,-99.99,,,0.00,weatherlink.com 1.10,2013-04-03 06:04:00,
2013-04-03 01:19:00,21.4,16.0,30.36,WNW,295,0.0,-999.0,79,-99.99,,,0.00,weatherlink.com 1.10,2013-04-03 06:19:00,
2013-04-03 01:34:00,21.5,16.0,30.36,WNW,296,0.0,-999.0,80,-99.99,,,0.00,weatherlink.com 1.10,2013-04-03 06:34:00,
2013-04-03 01:49:00,21.6,16.0,30.36,WNW,296,0.0,-999.0,80,-99.99,,,0.00,weatherlink.com 1.10,2013-04-03 06:49:00,
2013-04-03 02:04:00,21.5,17.0,30.36,WNW,295,0.0,-999.0,81,-99.99,,,0.00,weatherlink.com 1.10,2013-04-03 07:04:00,
2013-04-03 02:19:00,21.5,17.0,30.36,WNW,296,0.0,-999.0,81,-99.99,,,0.00,weatherlink.com 1.10,2013-04-03 07:19:00,
2013-04-03 02:34:00,21.7,17.0,30.36,WNW,296,0.0,-999.0,81,-99.99,,,0.00,weatherlink.com 1.10,2013-04-03 07:34:00,
2013-04-03 02:49:00,21.6,17.0,30.36,WNW,295,0.0,-999.0,81,-99.99,,,0.00,weatherlink.com 1.10,2013-04-03 07:49:00,
2013-04-03 03:04:00,20.9,16.0,30.36,WNW,296,0.0,-999.0,81,-99.99,,,0.00,weatherlink.com 1.10,2013-04-03 08:04:00,
2013-04-03 03:19:00,20.1,15.0,30.36,WNW,296,0.0,-999.0,81,-99.99,,,0.00,weatherlink.com 1.10,2013-04-03 08:19:00,
2013-04-03 03:35:00,19.7,15.0,30.36,WNW,296,0.0,-999.0,82,-99.99,,,0.00,weatherlink.com 1.10,2013-04-03 08:35:00,
2013-04-03 03:50:00,19.1,15.0,30.36,WNW,296,0.0,-999.0,82,-99.99,,,0.00,weatherlink.com 1.10,2013-04-03 08:50:00,
2013-04-03 04:20:00,18.5,14.0,30.36,WNW,296,0.0,-999.0,83,-99.99,,,0.00,weatherlink.com 1.10,2013-04-03 09:20:00,
2013-04-03 04:35:00,18.2,14.0,30.37,WNW,295,0.0,-999.0,83,-99.99,,,0.00,weatherlink.com 1.10,2013-04-03 09:35:00,
2013-04-03 04:50:00,17.9,14.0,30.37,WNW,296,0.0,-999.0,83,-99.99,,,0.00,weatherlink.com 1.10,2013-04-03 09:50:00,
2013-04-03 05:05:00,17.6,14.0,30.37,WNW,296,0.0,-999.0,84,-99.99,,,0.00,weatherlink.com 1.10,2013-04-03 10:05:00,
2013-04-03 05:20:00,17.4,13.0,30.37,WNW,296,0.0,-999.0,84,-99.99,,,0.00,weatherlink.com 1.10,2013-04-03 10:20:00,
2013-04-03 05:35:00,17.2,13.0,30.37,WNW,295,0.0,-999.0,84,-99.99,,,0.00,weatherlink.com 1.10,2013-04-03 10:35:00,
2013-04-03 05:50:00,16.9,13.0,30.37,WNW,296,0.0,-999.0,85,-99.99,,,0.00,weatherlink.com 1.10,2013-04-03 10:50:00,
2013-04-03 06:05:00,16.7,13.0,30.37,WNW,295,0.0,-999.0,85,-99.99,,,0.00,weatherlink.com 1.10,2013-04-03 11:05:00,
2013-04-03 06:20:00,16.6,13.0,30.38,WNW,296,0.0,-999.0,85,-99.99,,,0.00,weatherlink.com 1.10,2013-04-03 11:20:00,
2013-04-03 06:35:00,16.4,13.0,30.38,WNW,295,0.0,-999.0,86,-99.99,,,0.00,weatherlink.com 1.10,2013-04-03 11:35:00,
2013-04-03 06:50:00,16.2,13.0,30.38,WNW,296,0.0,-999.0,86,-99.99,,,0.00,weatherlink.com 1.10,2013-04-03 11:50:00,
2013-04-03 07:05:00,16.2,13.0,30.38,WNW,295,0.0,-999.0,86,-99.99,,,0.00,weatherlink.com 1.10,2013-04-03 12:05:00,
2013-04-03 07:20:00,16.4,13.0,30.38,WNW,296,0.0,-999.0,87,-99.99,,,0.00,weatherlink.com 1.10,2013-04-03 12:20:00,
2013-04-03 07:35:00,16.9,14.0,30.38,WNW,295,0.0,-999.0,87,-99.99,,,0.00,weatherlink.com 1.10,2013-04-03 12:35:00,
2013-04-03 07:50:00,20.1,18.0,30.38,WNW,295,0.0,-999.0,90,-99.99,,,0.00,weatherlink.com 1.10,2013-04-03 12:50:00,
2013-04-03 08:05:00,26.2,24.0,30.38,WNW,296,0.0,-999.0,92,-99.99,,,0.00,weatherlink.com 1.10,2013-04-03 13:05:00,
2013-04-03 08:20:00,28.4,25.0,30.38,WNW,296,0.0,-999.0,88,-99.99,,,0.00,weatherlink.com 1.10,2013-04-03 13:20:00,
2013-04-03 08:35:00,29.6,24.0,30.39,SE,141,0.0,-999.0,81,-99.99,,,0.00,weatherlink.com 1.10,2013-04-03 13:35:00,
2013-04-03 08:50:00,30.1,23.0,30.39,SE,136,1.0,-999.0,75,-99.99,,,0.00,weatherlink.com 1.10,2013-04-03 13:50:00,
2013-04-03 09:05:00,31.2,23.0,30.39,ESE,116,0.0,-999.0,73,-99.99,,,0.00,weatherlink.com 1.10,2013-04-03 14:05:00,
2013-04-03 09:20:00,33.6,23.0,30.38,NE,55,0.0,-999.0,66,-99.99,,,0.00,weatherlink.com 1.10,2013-04-03 14:20:00,
2013-04-03 09:35:00,35.5,21.0,30.37,SSE,148,3.0,-999.0,57,-99.99,,,0.00,weatherlink.com 1.10,2013-04-03 14:35:00,
2013-04-03 09:50:00,36.5,22.0,30.37,WSW,246,2.0,-999.0,55,-99.99,,,0.00,weatherlink.com 1.10,2013-04-03 14:50:00,
2013-04-03 10:05:00,37.3,20.0,30.36,SSE,150,1.0,-999.0,50,-99.99,,,0.00,weatherlink.com 1.10,2013-04-03 15:05:00,
2013-04-03 10:20:00,37.1,20.0,30.36,SE,125,2.0,-999.0,50,-99.99,,,0.00,weatherlink.com 1.10,2013-04-03 15:20:00,
2013-04-03 10:35:00,39.0,22.0,30.34,SSE,153,1.0,-999.0,50,-99.99,,,0.00,weatherlink.com 1.10,2013-04-03 15:35:00,
2013-04-03 10:50:00,39.3,20.0,30.34,South,171,3.0,-999.0,46,-99.99,,,0.00,weatherlink.com 1.10,2013-04-03 15:50:00,
2013-04-03 11:05:00,39.5,20.0,30.34,SSW,202,1.0,-999.0,46,-99.99,,,0.00,weatherlink.com 1.10,2013-04-03 16:05:00,
2013-04-03 11:21:00,41.1,21.0,30.32,South,175,2.0,-999.0,45,-99.99,,,0.00,weatherlink.com 1.10,2013-04-03 16:21:00,
2013-04-03 11:36:00,41.0,21.0,30.32,ESE,107,3.0,-999.0,46,-99.99,,,0.00,weatherlink.com 1.10,2013-04-03 16:36:00,
2013-04-03 11:51:00,42.7,21.0,30.31,East,80,3.0,-999.0,43,-99.99,,,0.00,weatherlink.com 1.10,2013-04-03 16:51:00,
2013-04-03 12:06:00,41.5,20.0,30.31,SE,136,1.0,-999.0,43,-99.99,,,0.00,weatherlink.com 1.10,2013-04-03 17:06:00,
2013-04-03 12:21:00,42.1,20.0,30.30,SSE,150,2.0,-999.0,42,-99.99,,,0.00,weatherlink.com 1.10,2013-04-03 17:21:00,
2013-04-03 12:36:00,43.1,20.0,30.29,East,98,1.0,-999.0,40,-99.99,,,0.00,weatherlink.com 1.10,2013-04-03 17:36:00,
2013-04-03 13:21:00,43.7,21.0,30.26,WSW,240,5.0,-999.0,41,-99.99,,,0.00,weatherlink.com 1.10,2013-04-03 18:21:00,
2013-04-03 13:51:00,44.3,22.0,30.25,ESE,111,6.0,-999.0,42,-99.99,,,0.00,weatherlink.com 1.10,2013-04-03 18:51:00,
2013-04-03 14:06:00,44.5,23.0,30.25,SSE,160,3.0,-999.0,43,-99.99,,,0.00,weatherlink.com 1.10,2013-04-03 19:06:00,
2013-04-03 14:36:00,46.1,26.0,30.23,SSW,198,3.0,-999.0,45,-99.99,,,0.00,weatherlink.com 1.10,2013-04-03 19:36:00,
2013-04-03 14:51:00,46.5,26.0,30.22,West,271,9.0,-999.0,45,-99.99,,,0.00,weatherlink.com 1.10,2013-04-03 19:51:00,
2013-04-03 15:06:00,47.3,27.0,30.22,SSE,153,0.0,-999.0,46,-99.99,,,0.00,weatherlink.com 1.10,2013-04-03 20:06:00,
2013-04-03 15:21:00,46.1,27.0,30.21,East,93,2.0,-999.0,47,-99.99,,,0.00,weatherlink.com 1.10,2013-04-03 20:21:00,
2013-04-03 15:36:00,46.2,27.0,30.21,SSW,209,5.0,-999.0,47,-99.99,,,0.00,weatherlink.com 1.10,2013-04-03 20:36:00,
2013-04-03 15:51:00,46.4,27.0,30.20,SW,229,7.0,-999.0,48,-99.99,,,0.00,weatherlink.com 1.10,2013-04-03 20:51:00,
2013-04-03 16:06:00,46.7,28.0,30.19,WSW,242,6.0,-999.0,48,-99.99,,,0.00,weatherlink.com 1.10,2013-04-03 21:06:00,
2013-04-03 16:21:00,46.2,28.0,30.19,SSE,149,6.0,-999.0,50,-99.99,,,0.00,weatherlink.com 1.10,2013-04-03 21:21:00,
2013-04-03 16:36:00,45.8,29.0,30.18,SSE,168,3.0,-999.0,52,-99.99,,,0.00,weatherlink.com 1.10,2013-04-03 21:36:00,
2013-04-03 16:52:00,45.2,29.0,30.18,West,267,5.0,-999.0,54,-99.99,,,0.00,weatherlink.com 1.10,2013-04-03 21:52:00,
2013-04-03 17:06:00,45.3,30.0,30.17,SW,229,4.0,-999.0,55,-99.99,,,0.00,weatherlink.com 1.10,2013-04-03 22:06:00,
2013-04-03 17:21:00,45.9,30.0,30.16,SW,217,3.0,-999.0,55,-99.99,,,0.00,weatherlink.com 1.10,2013-04-03 22:21:00,
2013-04-03 17:36:00,46.0,31.0,30.16,SSE,155,4.0,-999.0,56,-99.99,,,0.00,weatherlink.com 1.10,2013-04-03 22:36:00,
2013-04-03 17:51:00,46.3,32.0,30.16,WSW,244,14.0,-999.0,57,-99.99,,,0.00,weatherlink.com 1.10,2013-04-03 22:51:00,
2013-04-03 18:06:00,46.7,32.0,30.15,SW,228,4.0,-999.0,57,-99.99,,,0.00,weatherlink.com 1.10,2013-04-03 23:06:00,
2013-04-03 18:21:00,46.3,32.0,30.15,SSW,209,1.0,-999.0,58,-99.99,,,0.00,weatherlink.com 1.10,2013-04-03 23:21:00,
2013-04-03 18:36:00,45.8,32.0,30.14,SW,233,9.0,-999.0,60,-99.99,,,0.00,weatherlink.com 1.10,2013-04-03 23:36:00,
2013-04-03 18:52:00,45.4,33.0,30.13,SSW,203,5.0,-999.0,62,-99.99,,,0.00,weatherlink.com 1.10,2013-04-03 23:52:00,
2013-04-03 19:07:00,45.1,33.0,30.11,SSW,198,3.0,-999.0,63,-99.99,,,0.00,weatherlink.com 1.10,2013-04-04 00:07:00,
2013-04-03 19:22:00,44.5,33.0,30.11,SSE,151,2.0,-999.0,64,-99.99,,,0.00,weatherlink.com 1.10,2013-04-04 00:22:00,
2013-04-03 19:37:00,44.0,33.0,30.10,SW,215,4.0,-999.0,66,-99.99,,,0.00,weatherlink.com 1.10,2013-04-04 00:37:00,
2013-04-03 19:52:00,43.4,33.0,30.09,SSW,209,3.0,-999.0,67,-99.99,,,0.00,weatherlink.com 1.10,2013-04-04 00:52:00,
2013-04-03 20:07:00,43.1,33.0,30.08,SE,144,4.0,-999.0,68,-99.99,,,0.00,weatherlink.com 1.10,2013-04-04 01:07:00,
2013-04-03 20:22:00,42.7,33.0,30.07,SW,233,2.0,-999.0,69,-99.99,,,0.00,weatherlink.com 1.10,2013-04-04 01:22:00,
2013-04-03 20:37:00,42.5,33.0,30.07,ESE,106,1.0,-999.0,70,-99.99,,,0.00,weatherlink.com 1.10,2013-04-04 01:37:00,
2013-04-03 20:52:00,42.3,34.0,30.07,WSW,240,1.0,-999.0,71,-99.99,,,0.00,weatherlink.com 1.10,2013-04-04 01:52:00,
2013-04-03 21:07:00,42.1,33.0,30.05,SSW,205,2.0,-999.0,71,-99.99,,,0.00,weatherlink.com 1.10,2013-04-04 02:07:00,
2013-04-03 21:22:00,42.2,33.0,30.05,SE,132,5.0,-999.0,71,-99.99,,,0.00,weatherlink.com 1.10,2013-04-04 02:22:00,
2013-04-03 21:37:00,42.2,33.0,30.05,SSW,203,6.0,-999.0,71,-99.99,,,0.00,weatherlink.com 1.10,2013-04-04 02:37:00,
2013-04-03 21:52:00,42.1,34.0,30.05,SW,219,2.0,-999.0,72,-99.99,,,0.00,weatherlink.com 1.10,2013-04-04 02:52:00,
2013-04-03 22:07:00,41.9,33.0,30.04,SSW,202,2.0,-999.0,72,-99.99,,,0.00,weatherlink.com 1.10,2013-04-04 03:07:00,
2013-04-03 22:22:00,41.6,33.0,30.03,SSW,211,7.0,-999.0,72,-99.99,,,0.00,weatherlink.com 1.10,2013-04-04 03:22:00,
2013-04-03 22:37:00,41.5,33.0,30.03,SW,233,5.0,-999.0,72,-99.99,,,0.00,weatherlink.com 1.10,2013-04-04 03:37:00,
2013-04-03 22:52:00,41.5,33.0,30.02,SW,235,1.0,-999.0,72,-99.99,,,0.00,weatherlink.com 1.10,2013-04-04 03:52:00,
2013-04-03 23:07:00,41.6,33.0,30.01,SW,221,1.0,-999.0,71,-99.99,,,0.00,weatherlink.com 1.10,2013-04-04 04:07:00,
2013-04-03 23:22:00,41.8,33.0,30.01,WSW,243,5.0,-999.0,71,-99.99,,,0.00,weatherlink.com 1.10,2013-04-04 04:22:00,
2013-04-03 23:37:00,42.0,33.0,30.00,ESE,118,3.0,-999.0,70,-99.99,,,0.00,weatherlink.com 1.10,2013-04-04 04:37:00,
2013-04-03 23:52:00,42.3,33.0,30.00,SW,229,11.0,-999.0,69,-99.99,,,0.00,weatherlink.com 1.10,2013-04-04 04:52:00,